Presure
132 116 154 122 140 143 126 130 134 131 129 138 134 125 125 122 120 126 109 108 127 127 131 122 112 126 127 131 125 134 130 122 145 141 143 157 178 175 177 186 184 168 134 115 155
141 122 133 148 128 131 135 139 131 122 129 115 148 126 128 121 117 119 116 123 117 124 130 122 122 130 134 123 126 122 128 129 121 134 141 137 154 155 158 158 178 160 175 169 172
143 141 127 125 133 125 131 128 133 126 123 137 121 141 123 135 125 123 124 131 109 118 130 114 124 124 124 128 130 121 121 126 134 128 126 139 136 139 162 144 147 147 149 150 172
142 146 148 127 131 132 128 135 126 128 127 138 126 131 126 117 130 128 124 128 119 117 122 128 128 118 121 118 124 121 121 122 121 131 126 122 124 131 142 153 158 172 157 142 143
135 148 147 147 128 136 147 141 128 123 123 120 139 119 113 118 118 121 116 131 125 121 123 123 120 126 118 124 119 125 131 127 117 120 123 127 122 126 130 131 143 150 178 183 182
142 143 165 147 163 143 139 122 132 138 121 126 126 121 130 124 129 124 129 122 123 124 126 133 130 125 128 124 117 122 124 122 122 120 124 120 131 119 119 123 125 136 149 155 154
132 131 144 152 149 160 152 129 130 115 134 150 115 123 129 124 126 137 127 123 128 119 129 131 125 142 127 116 137 126 115 121 120 125 115 127 111 131 123 124 124 125 130 147 146
135 149 141 134 151 152 155 168 148 144 128 122 124 137 135 125 136 136 134 127 120 119 121 136 126 129 127 136 133 134 134 120 127 125 119 117 126 129 129 125 128 120 117 132 144
178 135 180 144 135 139 142 151 165 154 147 146 134 116 118 125 135 135 129 125 126 131 133 130 129 126 137 136 140 127 133 131 130 121 131 139 119 124 129 128 126 127 125 128 131
161 144 147 134 138 140 136 134 141 142 134 156 155 144 143 141 126 125 135 129 130 131 134 137 142 145 128 130 135 119 113 123 136 135 125 132 139 125 126 132 125 124 133 123 124
156 159 168 185 172 179 161 136 143 147 135 146 161 147 158 133 148 143 139 128 132 148 126 123 137 137 143 145 148 133 135 153 136 127 137 133 139 133 123 123 129 134 128 136 125
142 161 170 174 187 169 173 169 143 180 142 144 145 148 151 137 153 139 135 148 153 133 128 125 133 143 150 155 150 140 143 141 141 116 157 135 140 129 127 139 126 121 129 125 132
133 134 135 133 126 165 135 146 151 149 152 151 140 182 165 160 153 140 143 141 150 148 151 155 155 156 143 130 133 137 137 135 141 149 155 119 124 123 148 127 142 124 125 125 129
142 143 142 140 137 135 137 139 138 133 126 126 134 149 146 148 144 130 140 126 120 123 124 130 136 137 137 118 117 151 146 147 153 156 159 152 157 162 155 151 142 144 148 132 129
130 127 124 127 125 124 125 124 125 126 127 129 130 136 135 151 131 144 142 138 140 146 145 146 147 148 124 142 137 139 127 152 117 131 135 123 138 151 138 144 156 147 150 136 138
148 149 150 148 146 139 143 143 143 141 137 136 136 138 133 131 128 124 127 123 147 146 147 128 127 127 127 126 124 126 129 125 118 118 116 125 121 152 110 148 144 147 154 141 137
149 127 125 142 119 117 118 122 138 140 133 133 134 133 131 128 134 138 136 134 134 136 139 141 139 139 136 139 136 133 130 130 127 131 130 130 129 106 118 134 130 145 156 127 128
153 145 132 126 125 126 127 129 154 155 138 135 135 148 150 154 156 152 150 141 141 137 134 140 138 138 138 134 136 139 134 136 140 143 143 147 145 147 136 117 108 130 158 151 147
136 139 136 135 134 133 132 132 141 147 138 161 165 150 138 142 139 140 142 141 139 147 150 141 144 149 151 155 155 142 150 151 157 159 161 163 157 163 136 136 140 137 124 102 155
142 141 138 138 144 138 136 136 136 137 140 147 159 144 150 147 152 150 150 150 152 152 153 152 154 154 156 154 157 150 143 148 149 145 158 148 147 147 146 148 160 151 141 140 129
201 180 169 151 149 166 144 143 146 149 165 167 167 164 163 162 157 159 158 160 165 158 156 161 164 163 164 162 154 159 157 160 176 171 171 175 144 143 149 161 167 152 177 151 151
204 221 218 180 180 181 181 178 211 174 202 166 180 206 168 174 201 202 171 199 194 189 169 197 198 201 193 187 191 191 192 189 181 177 181 184 181 181 180 180 178 169 143 143 142
195 208 219 212 207 213 214 209 207 206 210 207 202 196 199 206 204 199 202 197 196 199 198 194 190 191 191 188 189 187 185 186 184 181 173 180 185 198 190 189 196 200 189 180 179
198 196 208 198 218 211 196 211 210 208 205 205 201 195 191 191 192 191 189 194 194 197 201 190 186 183 183 193 192 184 186 185 184 180 174 168 169 174 168 171 170 174 178 185 193
200 197 195 197 221 209 210 215 209 208 209 205 202 198 194 194 195 193 194 194 193 197 199 197 195 194 194 188 186 185 181 177 178 173 179 166 166 159 165 158 161 166 165 163 165
251 198 198 191 231 210 216 219 204 205 212 212 204 198 201 207 196 189 190 198 196 197 197 197 200 198 199 198 198 195 193 185 179 178 187 173 169 165 161 160 158 157 157 160 163
232 230 225 221 224 212 231 237 230 177 135 143 136 142 188 207 179 186 201 193 194 187 186 201 166 160 160 183 191 193 188 184 189 191 185 183 179 168 165 162 161 160 160 159 158
Wind_Speed
20 19 35 19 21 23 19 16 15 15 13 16 14 9 4 8 8 8 12 11 18 20 22 18 18 22 26 33 30 34 33 30 39 40 43 40 41 40 35 27 24 25 18 21 19
21 19 17 27 18 17 18 17 15 13 12 7 19 7 11 2 5 6 10 12 11 13 17 15 16 20 24 26 26 26 30 30 29 36 40 37 37 37 36 35 30 31 23 19 18
24 21 20 18 19 18 17 17 18 13 13 14 8 18 7 12 6 4 2 5 8 8 11 12 14 16 18 24 23 21 22 25 32 29 29 35 35 33 34 25 28 27 25 23 17
22 25 26 19 19 18 18 19 17 15 13 17 11 12 7 2 6 4 1 5 5 3 4 10 8 9 14 15 16 17 18 20 21 27 23 24 27 30 30 29 33 24 22 18 22
17 27 26 26 18 19 25 21 21 15 13 12 19 12 4 6 4 3 2 8 5 1 2 3 4 7 9 10 9 13 14 14 16 17 18 20 21 23 24 27 24 22 24 21 19
23 23 38 27 38 25 20 15 19 22 15 17 15 15 18 13 13 10 9 9 11 11 10 9 3 5 4 4 4 4 6 8 11 12 12 15 17 17 17 18 20 20 20 27 26
19 18 24 32 29 35 30 21 22 14 19 29 13 15 18 15 15 20 13 12 15 12 21 17 5 8 7 1 9 1 5 3 5 6 8 9 14 10 11 12 14 17 18 21 27
21 30 24 19 29 30 33 41 30 28 20 17 18 22 24 20 26 23 19 17 14 12 15 20 13 11 7 9 11 6 4 5 3 1 3 4 3 5 5 8 9 11 13 14 21
44 23 46 26 21 21 18 26 39 30 23 26 24 19 21 23 26 26 23 23 23 24 23 21 17 13 18 14 12 10 8 7 8 5 6 6 3 3 3 5 5 5 6 7 12
35 27 30 23 24 25 22 23 26 24 26 33 34 28 29 31 28 25 32 28 29 29 29 29 30 29 16 15 15 6 2 5 9 13 11 10 11 9 7 5 5 3 5 2 2
31 32 38 47 42 45 37 25 28 29 27 27 31 32 37 34 35 34 35 29 28 37 21 15 30 28 32 28 30 16 13 24 13 13 19 17 16 15 9 7 9 8 8 6 4
26 36 39 42 47 38 41 39 31 43 30 31 31 32 34 36 36 38 35 41 42 30 25 19 24 36 39 37 30 22 22 20 18 11 21 16 19 14 14 17 14 10 11 9 8
26 26 26 25 22 38 26 32 32 32 34 34 31 44 41 39 40 38 39 37 43 43 43 44 44 43 32 22 21 21 21 18 22 25 24 15 16 16 23 21 23 17 15 12 14
32 32 32 30 29 29 29 30 30 30 30 30 31 35 35 38 36 32 38 30 29 29 28 31 33 32 32 22 20 36 30 28 30 29 28 24 23 24 23 23 25 26 26 22 17
31 30 28 29 28 29 29 30 31 32 33 33 32 34 34 40 36 42 42 39 39 41 40 40 40 39 31 35 34 34 28 34 20 24 25 21 24 25 24 26 28 31 32 30 27
40 40 40 39 38 37 38 39 39 40 40 39 39 39 38 38 39 38 39 39 44 43 42 37 38 37 35 36 36 37 36 33 27 27 22 28 26 29 16 30 29 30 37 33 28
43 36 36 41 33 33 34 36 41 43 41 41 41 41 41 42 43 44 43 44 45 46 45 45 47 46 44 44 44 43 42 41 38 37 36 33 32 25 28 31 26 32 38 28 30
47 44 42 40 39 40 41 42 49 49 46 45 46 49 49 49 49 49 48 47 49 51 50 49 49 49 48 48 47 46 46 47 46 46 45 43 40 39 37 36 33 36 39 41 44
49 48 47 47 47 46 47 49 51 51 51 52 53 52 51 52 51 50 50 51 51 52 54 53 52 51 51 49 49 48 47 49 47 47 46 45 44 42 42 41 41 41 43 24 46
54 54 52 52 52 52 52 54 56 55 55 56 54 56 57 58 57 57 55 56 55 55 56 56 54 54 53 55 52 51 53 53 52 56 52 47 48 47 48 47 46 47 47 47 47
48 55 57 58 59 57 58 60 60 60 59 59 59 60 61 62 61 61 59 60 59 58 59 57 55 56 55 53 54 53 54 53 47 53 51 47 53 55 53 50 48 51 45 52 52
48 43 44 58 58 58 58 58 43 61 48 63 58 46 62 61 48 48 60 48 50 54 59 49 47 46 48 49 45 45 46 45 48 51 48 49 55 51 47 49 49 53 56 56 56
52 48 48 49 49 47 46 47 47 47 45 46 48 52 50 48 48 50 50 52 53 51 50 50 49 52 51 49 48 48 49 47 45 44 47 46 57 41 46 47 44 43 44 46 49
52 51 50 52 50 52 53 50 50 51 52 51 52 55 58 58 58 58 57 55 56 56 54 56 55 57 58 56 51 51 52 50 47 44 48 45 56 50 48 47 49 48 43 43 44
52 52 51 51 53 53 53 54 55 55 55 55 56 58 59 60 60 61 60 61 60 59 60 59 58 57 59 61 58 53 53 54 50 48 47 56 54 67 52 54 57 52 53 53 53
47 51 52 52 55 55 55 58 56 56 58 60 60 60 60 62 64 63 62 64 64 65 65 63 62 60 58 60 61 61 61 57 55 55 52 58 61 65 68 61 63 64 63 61 59
41 44 46 48 47 47 52 55 59 50 45 44 47 48 59 65 60 62 67 66 65 64 65 69 56 53 53 59 55 50 62 63 59 57 58 59 64 70 74 72 69 70 69 69 68
Wind_Direction
182 160 200 157 196 195 173 192 192 193 192 188 194 185 177 116 103 89 83 66 69 68 62 60 62 48 55 64 64 51 51 63 46 61 56 53 58 60 63 67 73 77 96 96 91
204 170 183 210 173 178 188 197 196 191 203 233 191 202 197 231 113 98 101 84 70 68 68 67 58 54 53 67 64 66 52 55 60 50 56 56 55 66 69 71 66 73 72 76 81
212 209 180 175 186 181 199 179 194 200 195 213 230 206 217 224 228 261 288 8 112 79 53 62 64 49 51 52 54 64 64 55 47 49 55 54 56 49 63 72 74 73 69 74 71
217 220 219 194 195 197 199 198 197 199 212 221 225 229 217 238 200 238 353 330 107 81 46 25 47 61 53 48 47 70 61 61 54 50 51 61 61 59 48 55 65 59 65 70 73
206 225 224 225 194 207 220 213 203 210 218 223 234 243 260 256 247 240 302 297 311 311 16 344 29 46 75 67 40 43 38 57 58 57 57 52 58 57 60 60 41 67 66 68 71
218 224 227 231 229 225 217 203 212 221 221 228 231 250 249 261 260 269 266 297 306 312 308 303 307 342 344 86 61 46 56 62 75 60 57 59 51 62 55 62 68 41 68 69 66
211 206 223 229 233 233 234 208 218 215 221 236 249 251 248 264 270 258 266 272 268 292 288 292 290 284 294 85 305 212 26 23 65 89 48 69 59 59 65 45 59 66 39 67 79
215 234 227 217 236 235 237 236 235 235 215 216 231 239 248 258 261 264 263 260 271 274 282 272 282 278 254 251 279 265 245 313 268 2 60 29 92 104 98 82 61 48 65 49 74
234 222 235 227 223 225 224 237 241 246 242 240 229 241 247 248 253 258 262 261 264 265 265 264 270 277 277 272 256 274 236 246 257 274 255 248 275 263 183 127 106 87 62 57 81
233 220 228 227 227 227 223 218 228 227 215 249 244 236 242 249 242 250 252 254 260 263 267 267 270 272 271 274 275 248 252 258 253 245 265 245 227 224 245 232 186 175 136 116 56
228 235 243 242 247 246 243 232 231 230 227 227 245 236 248 235 248 242 241 252 256 256 274 277 268 271 275 274 274 275 271 274 247 261 246 238 225 226 249 255 244 202 204 180 198
230 243 245 247 245 247 251 248 230 252 232 230 230 229 230 230 241 236 246 244 248 259 262 273 270 269 269 270 267 267 266 266 260 258 253 232 225 252 257 230 243 249 227 245 214
234 236 237 238 242 249 239 250 239 240 242 237 238 254 246 244 231 242 244 249 242 245 247 252 257 260 267 272 271 268 264 259 263 264 255 250 262 265 230 267 236 257 258 246 235
241 240 241 241 241 243 242 242 243 245 247 251 247 238 238 238 243 255 252 259 256 252 253 260 261 268 269 264 262 267 268 265 262 259 256 254 248 243 235 233 237 234 228 247 249
249 251 253 251 252 254 254 255 254 254 252 252 252 251 251 240 256 245 251 259 260 258 259 258 260 260 263 260 267 267 262 261 276 246 248 251 250 245 244 235 229 228 225 237 230
248 248 248 248 248 250 249 249 250 249 252 252 251 250 252 254 257 261 262 266 254 256 255 265 264 263 261 263 264 264 263 259 253 250 257 253 261 247 263 243 240 238 224 233 236
250 255 256 255 257 259 261 262 258 258 262 261 261 260 259 260 256 254 255 257 259 260 257 256 258 259 261 259 259 260 262 263 262 260 257 252 250 273 260 252 252 246 233 256 250
253 254 257 258 260 261 263 262 256 256 261 263 262 259 257 255 254 255 255 257 256 259 262 257 258 259 259 262 263 263 264 263 262 260 260 257 256 252 252 259 269 253 240 237 242
258 257 258 260 259 260 261 262 262 261 264 258 256 262 267 265 265 264 261 260 260 258 259 261 260 259 259 258 256 257 257 259 257 256 253 253 252 250 253 252 248 247 255 272 242
257 259 259 261 261 262 262 263 263 265 266 265 261 266 264 265 263 264 263 262 260 259 259 261 261 261 260 260 260 258 255 258 259 260 258 257 260 255 254 252 247 248 248 247 255
250 251 255 259 259 256 262 263 264 264 261 260 260 260 261 261 263 262 262 262 261 262 264 263 262 263 262 262 262 262 261 262 256 261 261 258 251 256 255 254 250 249 249 248 247
252 249 249 253 254 255 255 256 250 258 253 261 260 254 260 261 255 256 261 255 257 263 263 258 256 253 253 257 253 249 247 244 250 256 259 257 256 253 250 250 248 248 250 250 251
252 253 251 251 252 251 250 250 250 251 251 250 252 257 257 255 251 252 254 256 257 252 252 255 255 258 254 252 250 249 249 246 242 245 251 256 261 251 255 257 257 253 249 247 250
251 253 254 256 254 255 257 252 251 251 251 250 250 254 259 260 260 259 258 256 256 256 254 251 252 257 261 257 246 249 249 247 244 239 241 245 255 254 254 258 254 252 250 251 249
249 251 254 257 255 258 257 256 257 255 253 254 253 254 256 257 259 261 262 262 262 260 258 256 255 252 251 254 258 252 246 251 250 244 237 242 241 255 244 248 255 252 250 246 248
250 251 253 256 256 259 259 259 260 260 260 259 257 257 256 257 258 260 261 260 262 264 264 264 263 260 257 254 251 253 257 251 247 248 240 238 240 245 250 241 247 253 254 252 248
252 253 254 255 257 258 258 258 260 261 264 264 265 267 262 259 263 262 260 260 260 262 263 261 265 261 258 259 258 256 253 254 253 247 244 242 238 242 246 247 244 246 250 254 256